Other Surface Observations
Issued by NWS

Home | Current Version | Previous Version | Text Only | Print | Product List | Glossary On
Versions: 1 2 3 4 5 6 7 8 9 10 11 12 13 14 15 16 17 18 19 20 21 22 23 24 25 26 27 28 29 30 31 32 33 34 35 36 37 38 39 40 41 42 43 44 45 46 47 48 49 50
896
SXUS52 KTAE 010519
OSOTAE
OSOTAE
North Florida/South Alabama/Southwest Georgia Weather Roundup
National Weather Service Tallahassee Florida
100 AM EDT WED JUN 01 2016

Note: "fair" indicates few or no clouds below 12,000 feet with no
significant weather and/or obstructions to visibility.

!FLZ017-115-028-034-025-010600
...North Florida...

CITY           SKY/WX    TMP DP  RH WIND       PRES   REMARKS
TALLAHASSEE    PTCLDY    73  68  84 CALM      29.96R
APALACHICOLA   CLEAR     73  73 100 NW3       29.97R
PERRY          PTCLDY    73  71  95 CALM      29.98R
CROSS CITY       N/A     72  69  90 CALM      29.96R
JACKSONVILLE   MOCLDY    72  69  90 W3        29.94S
$$

!FLZ112-006-005-002-011-010600
...Florida Panhandle...

CITY           SKY/WX    TMP DP  RH WIND       PRES   REMARKS
MARIANNA       CLOUDY    74  69  85 SW5       29.95S
BONIFAY        NOT AVBL
PANAMA CITY NW FAIR      74  72  93 CALM      29.96S
TYNDALL AFB    PTCLDY    79  74  86 W8        29.97S
TYND DRONE APT MOCLDY    79  75  88 SW6       29.97S
DE FUNIAK SPR  FAIR      69  69  99 CALM      29.97F
EGLIN AFB      PTCLDY    74  69  85 CALM      29.96S
DESTIN         MOCLDY    81  76  84 CALM      29.96S
HURLBURT       PTCLDY    73  69  87 NE2       29.95S
CRESTVIEW      PTCLDY    69  67  93 CALM      29.98S FOG
PENSACOLA      CLEAR     73  68  84 N3        29.95S
$$

!ALZ063-066-010600
...South Alabama...

CITY           SKY/WX    TMP DP  RH WIND       PRES   REMARKS
DOTHAN         PTCLDY    73  66  78 SW3       30.00S
OZARK CAIRNS   PTCLDY    72  66  83 SW3       29.96S
FT RUCKER HELI PTCLDY    72  66  81 CALM      29.95F
RUCKER HELI 3  FAIR      73  64  74 W2        29.97F
RUCKER HELI 2  NOT AVBL
FLORALA APT    CLEAR     68  67  96 CALM      29.98F
ANDALUSIA      PTCLDY    72  66  81 CALM      29.96F
TROY           PTCLDY    70  67  90 CALM      29.97F
EUFALA         FAIR      70  65  84 CALM      29.95S
MOBILE         CLEAR     70  70 100 CALM      29.96F
$$

!GAZ120>161-010600
...Southwest and South Central Georgia...

CITY           SKY/WX    TMP DP  RH WIND       PRES   REMARKS
THOMASVILLE    MOCLDY    72  68  88 CALM      29.97R
BAINBRIDGE     CLEAR     73  68  83 NW3       29.96S
MOODY AFB      CLOUDY    76  66  70 S7        29.95S
VALDOSTA       MOCLDY    75  68  78 S5        29.97S
MOULTRIE       CLEAR     73  68  83 CALM      29.97S
BLAKELY        CLEAR     72  68  88 CALM      29.97S
ALBANY         LGT RAIN  78  66  66 SE3       29.97R
TIFTON         CLOUDY    77  69  75 SW3       29.96S
FITZGERALD     FAIR      78  67  69 SW3       29.98R
CORDELE        FAIR      80  66  61 CALM      29.96S
AMERICUS       FAIR      75  63  64 CALM      29.97S
HOMERVILLE     FAIR      72  68  88 S3        29.97R
$$

!GMZ750-755-770-775-010600
...Coastal and Buoy Obs...

STATION/POSITION TIME  TEMP    WIND        PRES    VSBY  WAVE
                       AIR SEA DIR/SP/G                  HT/PER
                 (UTC) (F)     (DEG/KT/KT) (MB)    (MI)  (FT/S)
KEATON BEACH     0500   80     270/  8/  9 1014.4R
CEDAR KEY        0500   80     290/  3/  5 1015.1R
C TOWER          0500   79     280/  9/ 10 1015.4R
APALACHICOLA BUO 0450   80 81  290/  4/  4 1014.7R         1
PANAMA CITY BUOY 0450   80 82  260/  4/  6 1015.3S         1
MOBILE BUOY      0500   80 81  220/  6/  6 1014.5F
ORANGE BCH AL BU 0450   82 83              1013.8S         1/ 3
$$




USA.gov is the U.S. government's official web portal to all federal, state and local government web resources and services.